OCN642 EDDF-KTPA

Flight info

Callsign OCN642
Flight time N/A
Altitude 36000
Route OBOKA3D/07C OBOKA Z29 TORNU DCT BATAK DCT GALSO Q63 KOPUL Q60 OKSAW DCT BIBPE DCT OKTAD DCT MEDOG DCT PEMOB DCT BAKUR DCT RESNO/M081F360 DCT 55N020W 55N030W 53N040W 4930N05000W DCT IBERG DCT CARAC/M081F400 M201 VEGAA Y493 TUBBS/N0461F400 Y493 BAHAA AR15 HIBAC DADES2
Aircraft A332/H-SDE3GHIJ2J3J5M1RVWXYZ/LB2D1

Departure

Time 2026-04-15 10:14
Airport Frankfurt Main Airport (EDDF)

Arrival

Time N/A
Airport Tampa International Airport (KTPA)
Time Latitude Longitude Altitude Speed Heading
2026-04-15 09:35 50.04902 8.58069 363 ft 0 kts 339°
2026-04-15 10:00 50.04885 8.58079 368 ft 4 kts 339°
2026-04-15 10:00 50.04859 8.58093 367 ft 3 kts 339°
2026-04-15 10:00 50.04837 8.58110 369 ft 4 kts 316°
2026-04-15 10:01 50.04825 8.58142 364 ft 4 kts 265°
2026-04-15 10:01 50.04832 8.58181 369 ft 4 kts 245°
2026-04-15 10:01 50.04838 8.58199 369 ft 0 kts 250°
2026-04-15 10:04 50.04837 8.58199 369 ft 0 kts 250°
2026-04-15 10:05 50.04832 8.58175 371 ft 4 kts 250°
2026-04-15 10:05 50.04819 8.58122 365 ft 7 kts 250°
2026-04-15 10:05 50.04797 8.58033 369 ft 9 kts 246°
2026-04-15 10:05 50.04752 8.57964 368 ft 10 kts 204°
2026-04-15 10:06 50.04688 8.57975 367 ft 10 kts 162°
2026-04-15 10:06 50.04624 8.58009 366 ft 9 kts 160°
2026-04-15 10:06 50.04571 8.58022 366 ft 6 kts 192°
2026-04-15 10:06 50.04541 8.57993 370 ft 5 kts 223°
2026-04-15 10:07 50.04519 8.57923 370 ft 12 kts 249°
2026-04-15 10:07 50.04487 8.57787 369 ft 14 kts 250°
2026-04-15 10:07 50.04451 8.57638 370 ft 15 kts 249°
2026-04-15 10:07 50.04411 8.57469 370 ft 18 kts 249°
2026-04-15 10:08 50.04367 8.57283 372 ft 19 kts 250°
2026-04-15 10:08 50.04321 8.57092 369 ft 19 kts 251°
2026-04-15 10:08 50.04276 8.56896 366 ft 19 kts 247°
2026-04-15 10:08 50.04227 8.56705 361 ft 20 kts 248°
2026-04-15 10:09 50.04177 8.56501 365 ft 21 kts 249°
2026-04-15 10:09 50.04129 8.56292 358 ft 21 kts 251°
2026-04-15 10:09 50.04081 8.56086 363 ft 20 kts 250°
2026-04-15 10:09 50.04031 8.55880 359 ft 20 kts 249°
2026-04-15 10:10 50.03982 8.55674 358 ft 20 kts 249°
2026-04-15 10:10 50.03934 8.55471 360 ft 19 kts 250°
2026-04-15 10:10 50.03887 8.55275 357 ft 19 kts 250°
2026-04-15 10:10 50.03842 8.55084 355 ft 19 kts 250°
2026-04-15 10:11 50.03795 8.54894 360 ft 19 kts 249°
2026-04-15 10:11 50.03750 8.54703 358 ft 18 kts 250°
2026-04-15 10:11 50.03704 8.54513 351 ft 19 kts 249°
2026-04-15 10:11 50.03667 8.54361 350 ft 12 kts 243°
2026-04-15 10:12 50.03600 8.54319 350 ft 11 kts 173°
2026-04-15 10:12 50.03531 8.54356 351 ft 8 kts 159°
2026-04-15 10:12 50.03497 8.54408 354 ft 6 kts 110°
2026-04-15 10:12 50.03501 8.54455 355 ft 4 kts 70°
2026-04-15 10:13 50.03563 8.54713 351 ft 53 kts 70°
2026-04-15 10:13 50.03754 8.55524 360 ft 105 kts 69°
2026-04-15 10:13 50.04062 8.56808 366 ft 147 kts 69°
2026-04-15 10:13 50.04456 8.58430 626 ft 165 kts 69°
2026-04-15 10:14 50.04883 8.60115 1131 ft 170 kts 69°
2026-04-15 10:14 50.05318 8.61798 1720 ft 169 kts 70°
2026-04-15 10:14 50.05702 8.63568 1933 ft 178 kts 72°
2026-04-15 10:14 50.06090 8.65469 2111 ft 190 kts 72°
2026-04-15 10:15 50.06515 8.67493 2269 ft 203 kts 72°
2026-04-15 10:15 50.07030 8.69613 2451 ft 215 kts 63°
2026-04-15 10:15 50.07998 8.71410 2712 ft 223 kts 37°
2026-04-15 10:15 50.09400 8.72612 2844 ft 238 kts 25°
2026-04-15 10:16 50.10975 8.73665 3069 ft 252 kts 24°
2026-04-15 10:16 50.12611 8.74728 3547 ft 256 kts 24°
2026-04-15 10:16 50.14260 8.75814 4069 ft 258 kts 25°
2026-04-15 10:16 50.15900 8.76909 4574 ft 262 kts 25°
2026-04-15 10:17 50.17580 8.78036 5105 ft 264 kts 25°
2026-04-15 10:17 50.19278 8.79184 5594 ft 268 kts 24°
2026-04-15 10:17 50.21002 8.80350 6068 ft 272 kts 24°
2026-04-15 10:17 50.22753 8.81536 6563 ft 277 kts 23°
2026-04-15 10:18 50.24609 8.82400 7021 ft 281 kts
2026-04-15 10:18 50.26540 8.82093 7541 ft 281 kts 339°
2026-04-15 10:18 50.28174 8.80473 8108 ft 280 kts 312°
2026-04-15 10:18 50.29196 8.77952 8636 ft 280 kts 291°
2026-04-15 10:19 50.29871 8.75085 9192 ft 282 kts 287°
2026-04-15 10:19 50.30485 8.72158 9710 ft 284 kts 287°
2026-04-15 10:19 50.31105 8.69208 10246 ft 287 kts 288°
2026-04-15 10:19 50.31747 8.66204 10554 ft 297 kts 288°
2026-04-15 10:20 50.32422 8.63075 10761 ft 310 kts 288°
2026-04-15 10:20 50.33128 8.59817 10976 ft 323 kts 288°
2026-04-15 10:20 50.33865 8.56424 11163 ft 335 kts 288°
2026-04-15 10:20 50.34618 8.52957 11347 ft 347 kts 288°
2026-04-15 10:21 50.35403 8.49339 11632 ft 354 kts 288°
2026-04-15 10:21 50.36198 8.45674 12049 ft 357 kts 288°
2026-04-15 10:21 50.36997 8.41983 12509 ft 358 kts 288°
2026-04-15 10:21 50.37638 8.38212 12958 ft 359 kts 277°
2026-04-15 10:22 50.37619 8.34309 13411 ft 360 kts 260°
2026-04-15 10:22 50.37006 8.30501 13864 ft 362 kts 253°
2026-04-15 10:22 50.36250 8.26728 14265 ft 364 kts 252°
2026-04-15 10:22 50.35484 8.22995 14596 ft 366 kts 252°
2026-04-15 10:23 50.34705 8.19175 14922 ft 370 kts 252°
2026-04-15 10:23 50.33924 8.15326 15275 ft 372 kts 253°
2026-04-15 10:23 50.33141 8.11454 15606 ft 374 kts 253°
2026-04-15 10:23 50.32355 8.07559 15956 ft 377 kts 253°
2026-04-15 10:24 50.31563 8.03637 16312 ft 379 kts 253°
2026-04-15 10:24 50.30766 7.99701 16637 ft 381 kts 253°
2026-04-15 10:24 50.29989 7.95721 16976 ft 383 kts 256°
2026-04-15 10:24 50.29653 7.91588 17289 ft 385 kts 272°
2026-04-15 10:25 50.30117 7.87533 17629 ft 387 kts 289°
2026-04-15 10:25 50.31133 7.83629 17946 ft 389 kts 294°
2026-04-15 10:25 50.32264 7.79780 18292 ft 390 kts 294°
2026-04-15 10:25 50.33405 7.75926 18613 ft 392 kts 294°
2026-04-15 10:26 50.34557 7.72050 18864 ft 394 kts 296°
2026-04-15 10:26 50.36021 7.68408 19107 ft 397 kts 309°
2026-04-15 10:26 50.38062 7.65489 19395 ft 400 kts 326°
2026-04-15 10:26 50.40513 7.63431 19740 ft 401 kts 334°
2026-04-15 10:27 50.43064 7.61662 20033 ft 401 kts 335°
2026-04-15 10:27 50.45598 7.59951 20289 ft 403 kts 335°
2026-04-15 10:27 50.48179 7.58201 20547 ft 405 kts 335°
2026-04-15 10:27 50.50767 7.56432 20808 ft 406 kts 335°
2026-04-15 10:28 50.53360 7.54651 21085 ft 407 kts 335°
2026-04-15 10:28 50.55915 7.52720 21339 ft 408 kts 329°
2026-04-15 10:28 50.58346 7.50399 21628 ft 409 kts 327°
2026-04-15 10:28 50.60742 7.47964 21880 ft 411 kts 326°
2026-04-15 10:29 50.63138 7.45500 22138 ft 412 kts 326°
2026-04-15 10:29 50.65543 7.43025 22411 ft 413 kts 326°
2026-04-15 10:29 50.67919 7.40580 22699 ft 414 kts 326°
2026-04-15 10:29 50.70335 7.38094 22950 ft 416 kts 326°
2026-04-15 10:30 50.72693 7.35445 23189 ft 417 kts 320°
2026-04-15 10:30 50.74727 7.32190 23429 ft 418 kts 308°
2026-04-15 10:30 50.76338 7.28361 23687 ft 419 kts 301°
2026-04-15 10:30 50.77767 7.24336 23912 ft 421 kts 298°
2026-04-15 10:31 50.79108 7.20221 24126 ft 422 kts 297°
2026-04-15 10:31 50.80415 7.16058 24359 ft 423 kts 296°
2026-04-15 10:31 50.81701 7.11938 24556 ft 424 kts 297°
2026-04-15 10:31 50.83014 7.07757 24790 ft 425 kts 297°
2026-04-15 10:32 50.84340 7.03576 25001 ft 426 kts 297°
2026-04-15 10:32 50.85680 6.99383 25161 ft 428 kts 297°
2026-04-15 10:32 50.87030 6.95173 25388 ft 429 kts 297°
2026-04-15 10:32 50.88385 6.90967 25618 ft 429 kts 297°
2026-04-15 10:33 50.89744 6.86750 25817 ft 430 kts 297°
2026-04-15 10:33 50.91104 6.82523 26027 ft 431 kts 297°
2026-04-15 10:33 50.92464 6.78288 26240 ft 432 kts 297°
2026-04-15 10:33 50.93825 6.74038 26446 ft 433 kts 297°
2026-04-15 10:34 50.95187 6.69778 26662 ft 434 kts 297°
2026-04-15 10:34 50.96550 6.65505 26868 ft 435 kts 297°
2026-04-15 10:34 50.97894 6.61281 27076 ft 435 kts 297°
2026-04-15 10:34 50.99260 6.56980 27243 ft 437 kts 296°
2026-04-15 10:35 51.00626 6.52660 27438 ft 438 kts 296°
2026-04-15 10:35 51.01993 6.48326 27647 ft 439 kts 296°
2026-04-15 10:35 51.03363 6.43989 27857 ft 440 kts 296°
2026-04-15 10:35 51.04739 6.39636 28060 ft 441 kts 296°
2026-04-15 10:36 51.06114 6.35277 28259 ft 442 kts 296°
2026-04-15 10:36 51.07472 6.30964 28451 ft 443 kts 296°
2026-04-15 10:36 51.08849 6.26579 28652 ft 444 kts 296°
2026-04-15 10:36 51.10226 6.22184 28842 ft 445 kts 296°
2026-04-15 10:37 51.11606 6.17771 29030 ft 446 kts 296°
2026-04-15 10:37 51.12974 6.13335 29218 ft 447 kts 294°
2026-04-15 10:37 51.14095 6.08715 29379 ft 448 kts 288°
2026-04-15 10:37 51.14989 6.03955 29561 ft 449 kts 286°
2026-04-15 10:38 51.15822 5.99149 29741 ft 451 kts 285°
2026-04-15 10:38 51.16617 5.94315 29922 ft 452 kts 285°
2026-04-15 10:38 51.17384 5.89527 30091 ft 453 kts 285°
2026-04-15 10:38 51.18325 5.84742 30246 ft 453 kts 291°
2026-04-15 10:39 51.19659 5.80187 30403 ft 454 kts 298°
2026-04-15 10:39 51.21187 5.75773 30573 ft 454 kts 299°
2026-04-15 10:39 51.22777 5.71426 30792 ft 453 kts 300°
2026-04-15 10:39 51.24400 5.67109 30909 ft 455 kts 300°
2026-04-15 10:40 51.26040 5.62789 31104 ft 455 kts 300°
2026-04-15 10:40 51.27681 5.58477 31325 ft 453 kts 300°
2026-04-15 10:40 51.29313 5.54175 31572 ft 452 kts 300°
2026-04-15 10:40 51.30930 5.49890 31828 ft 450 kts 300°
2026-04-15 10:41 51.32518 5.45658 32064 ft 449 kts 300°
2026-04-15 10:41 51.34118 5.41376 32297 ft 448 kts 300°
2026-04-15 10:41 51.35710 5.37101 32542 ft 447 kts 300°
2026-04-15 10:41 51.37295 5.32837 32804 ft 445 kts 300°
2026-04-15 10:42 51.38874 5.28580 33026 ft 444 kts 300°
2026-04-15 10:42 51.40448 5.24327 33250 ft 444 kts 299°
2026-04-15 10:42 51.42023 5.20057 33398 ft 445 kts 299°
2026-04-15 10:42 51.43574 5.15844 33632 ft 445 kts 299°
2026-04-15 10:43 51.45144 5.11584 33901 ft 443 kts 299°
2026-04-15 10:43 51.46710 5.07339 34152 ft 442 kts 299°
2026-04-15 10:43 51.48271 5.03100 34379 ft 441 kts 299°
2026-04-15 10:43 51.49826 4.98869 34569 ft 440 kts 299°
2026-04-15 10:44 51.51378 4.94638 34759 ft 439 kts 299°
2026-04-15 10:44 51.52925 4.90410 34957 ft 438 kts 299°
2026-04-15 10:44 51.54464 4.86195 35129 ft 438 kts 299°
2026-04-15 10:44 51.55913 4.81904 35308 ft 436 kts 294°
2026-04-15 10:45 51.57009 4.77436 35408 ft 436 kts 285°
2026-04-15 10:45 51.58335 4.67946 35645 ft 435 kts 279°
2026-04-15 10:45 51.58863 4.63166 35825 ft 433 kts 278°
2026-04-15 10:46 51.59358 4.58390 36005 ft 433 kts 278°
2026-04-15 10:46 51.59840 4.53619 36138 ft 433 kts 278°
2026-04-15 10:46 51.60322 4.48842 36160 ft 432 kts 278°
2026-04-15 10:47 51.61292 4.39337 36159 ft 430 kts 278°
2026-04-15 10:47 51.62267 4.29845 36157 ft 430 kts 278°
2026-04-15 10:48 51.63234 4.20414 36156 ft 430 kts 278°
2026-04-15 10:48 51.64200 4.10908 36156 ft 430 kts 278°
2026-04-15 10:49 51.65158 4.01404 36153 ft 430 kts 278°
2026-04-15 10:49 51.66107 3.91892 36152 ft 430 kts 278°
2026-04-15 10:50 51.67043 3.82442 36149 ft 430 kts 277°
2026-04-15 10:50 51.67972 3.72912 36146 ft 431 kts 277°
2026-04-15 10:51 51.68902 3.63366 36139 ft 431 kts 277°
2026-04-15 10:51 51.69826 3.53825 36142 ft 431 kts 277°
2026-04-15 10:52 51.70741 3.44275 36135 ft 431 kts 276°
2026-04-15 10:52 51.71647 3.34723 36136 ft 431 kts 276°
2026-04-15 10:53 51.72535 3.25225 36136 ft 431 kts 276°
2026-04-15 10:53 51.72983 3.15632 36129 ft 427 kts 264°
2026-04-15 10:54 51.72380 3.06119 36130 ft 426 kts 261°
2026-04-15 10:54 51.71562 2.96653 36132 ft 426 kts 260°
2026-04-15 10:55 51.70701 2.87197 36119 ft 426 kts 259°
2026-04-15 10:55 51.69849 2.77778 36130 ft 430 kts 259°
2026-04-15 10:56 51.68991 2.68201 36119 ft 432 kts 259°
2026-04-15 10:56 51.68140 2.58637 36120 ft 429 kts 259°
2026-04-15 10:57 51.67290 2.49170 36112 ft 426 kts 259°
2026-04-15 10:57 51.65999 2.35068 36119 ft 425 kts 258°
2026-04-15 10:58 51.65128 2.25665 36110 ft 424 kts 258°
2026-04-15 10:58 51.64250 2.16266 36111 ft 424 kts 258°
2026-04-15 10:59 51.63371 2.06872 36105 ft 424 kts 258°
2026-04-15 10:59 51.62501 1.97476 36105 ft 424 kts 258°
2026-04-15 11:00 51.61632 1.88150 36108 ft 424 kts 257°
2026-04-15 11:00 51.60754 1.78795 36102 ft 423 kts 257°
2026-04-15 11:01 51.59865 1.69448 36097 ft 423 kts 257°
2026-04-15 11:01 51.58965 1.60103 36098 ft 423 kts 257°
2026-04-15 11:02 51.58039 1.50837 36091 ft 423 kts 256°
2026-04-15 11:02 51.57089 1.41513 36100 ft 423 kts 256°
2026-04-15 11:03 51.56133 1.32196 36079 ft 422 kts 256°
2026-04-15 11:03 51.55172 1.22884 36081 ft 422 kts 256°
2026-04-15 11:04 51.54465 1.13569 36074 ft 427 kts 264°
2026-04-15 11:04 51.54807 1.03972 36075 ft 432 kts 269°
2026-04-15 11:05 51.55411 0.94354 36103 ft 433 kts 269°
2026-04-15 11:05 51.56052 0.84729 36050 ft 433 kts 269°
2026-04-15 11:06 51.56665 0.75161 36050 ft 433 kts 269°
2026-04-15 11:06 51.57260 0.65521 36054 ft 433 kts 269°
2026-04-15 11:07 51.57842 0.55873 36041 ft 434 kts 269°
2026-04-15 11:07 51.58417 0.46203 36068 ft 435 kts 268°
2026-04-15 11:08 51.58986 0.36523 36049 ft 435 kts 268°
2026-04-15 11:08 51.59544 0.26907 36047 ft 435 kts 268°
2026-04-15 11:09 51.60096 0.17224 36047 ft 435 kts 268°
2026-04-15 11:09 51.60641 0.07538 36047 ft 435 kts 268°
2026-04-15 11:10 51.61178 -0.02151 36029 ft 435 kts 268°
2026-04-15 11:10 51.61710 -0.11843 35978 ft 435 kts 268°
2026-04-15 11:11 51.62290 -0.21546 35966 ft 436 kts 268°
2026-04-15 11:11 51.62889 -0.31192 35965 ft 436 kts 268°
2026-04-15 11:12 51.63484 -0.40906 36047 ft 436 kts 268°
2026-04-15 11:12 51.64064 -0.50615 36047 ft 436 kts 268°
2026-04-15 11:13 51.64634 -0.60327 36042 ft 436 kts 268°
2026-04-15 11:13 51.65192 -0.69972 36037 ft 436 kts 268°
2026-04-15 11:14 51.65745 -0.79685 36026 ft 435 kts 268°
2026-04-15 11:14 51.66291 -0.89398 36018 ft 435 kts 268°
2026-04-15 11:15 51.66828 -0.99111 36018 ft 436 kts 268°
2026-04-15 11:15 51.67353 -1.08768 35991 ft 436 kts 268°
2026-04-15 11:16 51.67876 -1.18501 35996 ft 436 kts 267°
2026-04-15 11:16 51.68390 -1.28232 35993 ft 436 kts 267°
2026-04-15 11:17 51.68896 -1.37967 35995 ft 436 kts 267°
2026-04-15 11:17 51.69390 -1.47640 36018 ft 436 kts 267°
2026-04-15 11:18 51.69880 -1.57378 35993 ft 436 kts 266°
2026-04-15 11:18 51.70363 -1.67122 35994 ft 436 kts 267°
2026-04-15 11:19 51.70983 -1.76873 35989 ft 438 kts 269°
2026-04-15 11:19 51.71875 -1.86562 35990 ft 444 kts 274°
2026-04-15 11:20 51.73257 -1.96287 35995 ft 446 kts 275°
2026-04-15 11:20 51.74713 -2.06034 35970 ft 448 kts 275°
2026-04-15 11:21 51.76168 -2.15807 35969 ft 448 kts 275°
2026-04-15 11:21 51.77597 -2.25524 35968 ft 448 kts 275°
2026-04-15 11:22 51.79020 -2.35307 35965 ft 448 kts 275°
2026-04-15 11:22 51.80437 -2.45119 35993 ft 449 kts 274°
2026-04-15 11:23 51.81848 -2.54980 35957 ft 452 kts 274°
2026-04-15 11:23 51.83203 -2.64824 35947 ft 451 kts 273°
2026-04-15 11:24 51.84537 -2.74742 35934 ft 451 kts 273°
2026-04-15 11:24 51.85865 -2.84667 35944 ft 452 kts 273°
2026-04-15 11:25 51.87190 -2.94599 35977 ft 452 kts 273°
2026-04-15 11:25 51.88502 -3.04497 35939 ft 454 kts 273°
2026-04-15 11:26 51.89816 -3.14494 35923 ft 454 kts 273°
2026-04-15 11:26 51.91123 -3.24488 35927 ft 454 kts 272°
2026-04-15 11:27 51.92421 -3.34492 35917 ft 454 kts 272°
2026-04-15 11:27 51.93710 -3.44500 35944 ft 454 kts 272°
2026-04-15 11:28 51.94985 -3.54456 35903 ft 455 kts 272°
2026-04-15 11:28 51.96262 -3.64495 35906 ft 455 kts 272°
2026-04-15 11:29 51.97527 -3.74541 35900 ft 455 kts 272°
2026-04-15 11:29 51.98782 -3.84591 35903 ft 455 kts 272°
2026-04-15 11:30 52.00027 -3.94624 35923 ft 458 kts 272°
2026-04-15 11:30 52.01277 -4.04757 35900 ft 458 kts 272°
2026-04-15 11:31 52.02519 -4.14908 35877 ft 458 kts 272°
2026-04-15 11:31 52.03752 -4.25059 35877 ft 458 kts 272°
2026-04-15 11:32 52.04967 -4.35152 35869 ft 458 kts 272°
2026-04-15 11:32 52.06184 -4.45314 35889 ft 458 kts 272°
2026-04-15 11:33 52.07390 -4.55488 35862 ft 459 kts 272°
2026-04-15 11:33 52.08589 -4.65670 35859 ft 459 kts 272°
2026-04-15 11:34 52.09779 -4.75857 35849 ft 459 kts 272°
2026-04-15 11:34 52.10952 -4.85980 35842 ft 458 kts 272°
2026-04-15 11:35 52.12124 -4.96176 35846 ft 458 kts 273°
2026-04-15 11:35 52.13287 -5.06375 35834 ft 458 kts 273°
2026-04-15 11:36 52.14563 -5.16564 35837 ft 463 kts 278°
2026-04-15 11:36 52.16356 -5.26590 35832 ft 465 kts 279°
2026-04-15 11:37 52.18266 -5.36686 35821 ft 467 kts 279°
2026-04-15 11:37 52.20192 -5.46808 35821 ft 468 kts 279°
2026-04-15 11:38 52.22093 -5.56900 35812 ft 468 kts 279°
2026-04-15 11:38 52.24125 -5.67001 35812 ft 474 kts 286°
2026-04-15 11:39 52.27194 -5.76636 35802 ft 481 kts 292°
2026-04-15 11:39 52.30535 -5.86120 35801 ft 482 kts 293°
2026-04-15 11:40 52.33897 -5.95516 35835 ft 482 kts 293°
2026-04-15 11:40 52.37259 -6.04995 35803 ft 481 kts 293°
2026-04-15 11:41 52.40598 -6.14496 35785 ft 482 kts 293°
2026-04-15 11:41 52.43930 -6.24034 35771 ft 482 kts 293°
2026-04-15 11:42 52.47232 -6.33520 35775 ft 482 kts 292°
2026-04-15 11:42 52.50549 -6.43084 35757 ft 482 kts 292°
2026-04-15 11:43 52.53855 -6.52655 35758 ft 482 kts 293°
2026-04-15 11:43 52.57155 -6.62240 35753 ft 482 kts 293°
2026-04-15 11:44 52.60450 -6.71849 35743 ft 483 kts 292°
2026-04-15 11:44 52.63719 -6.81423 35746 ft 483 kts 292°
2026-04-15 11:45 52.67005 -6.91082 35724 ft 483 kts 292°
2026-04-15 11:45 52.70283 -7.00752 35722 ft 483 kts 292°
2026-04-15 11:46 52.73551 -7.10433 35720 ft 482 kts 293°
2026-04-15 11:46 52.76780 -7.20033 35704 ft 481 kts 293°
2026-04-15 11:47 52.80024 -7.29718 35704 ft 482 kts 292°
2026-04-15 11:47 52.83264 -7.39433 35691 ft 483 kts 292°
2026-04-15 11:48 52.86500 -7.49173 35678 ft 483 kts 292°
2026-04-15 11:48 52.89709 -7.58863 35679 ft 483 kts 292°
2026-04-15 11:49 52.92926 -7.68619 35677 ft 482 kts 293°
2026-04-15 11:49 52.96126 -7.78361 35668 ft 481 kts 292°
2026-04-15 11:50 52.99314 -7.88109 35675 ft 481 kts 292°
2026-04-15 11:50 53.02501 -7.97896 35662 ft 483 kts 292°
2026-04-15 11:51 53.05670 -8.07664 35657 ft 484 kts 292°
2026-04-15 11:51 53.08856 -8.17519 35671 ft 484 kts 292°
2026-04-15 11:52 53.12025 -8.27359 35647 ft 481 kts 292°
2026-04-15 11:52 53.15176 -8.37184 35647 ft 481 kts 292°
2026-04-15 11:53 53.18295 -8.46956 35636 ft 481 kts 292°
2026-04-15 11:53 53.21426 -8.56803 35636 ft 481 kts 292°
2026-04-15 11:54 53.24550 -8.66666 35627 ft 481 kts 292°
2026-04-15 11:54 53.27665 -8.76540 35648 ft 480 kts 292°
2026-04-15 11:55 53.30764 -8.86401 35622 ft 478 kts 292°
2026-04-15 11:55 53.33824 -8.96179 35622 ft 478 kts 292°
2026-04-15 11:56 53.36895 -9.06036 35625 ft 478 kts 292°
2026-04-15 11:56 53.39959 -9.15910 35621 ft 478 kts 292°
2026-04-15 11:57 53.44534 -9.30732 35615 ft 480 kts 292°
2026-04-15 11:58 53.47588 -9.40672 35603 ft 478 kts 292°
2026-04-15 11:58 53.50626 -9.50599 35604 ft 478 kts 292°
2026-04-15 11:59 53.53654 -9.60538 35600 ft 478 kts 292°
2026-04-15 11:59 53.56653 -9.70424 35598 ft 478 kts 292°
2026-04-15 12:00 53.59664 -9.80392 35614 ft 478 kts 291°
2026-04-15 12:00 53.62672 -9.90392 35627 ft 480 kts 291°
2026-04-15 12:01 53.65676 -10.00416 35590 ft 478 kts 292°
2026-04-15 12:01 53.68161 -10.08737 35581 ft 478 kts 291°
2026-04-15 12:02 53.71620 -10.20379 35578 ft 478 kts 291°
2026-04-15 12:02 53.74588 -10.30411 35570 ft 477 kts 291°
2026-04-15 12:03 53.77547 -10.40454 35570 ft 477 kts 291°
2026-04-15 12:03 53.79999 -10.48811 35572 ft 478 kts 291°
2026-04-15 12:04 53.83427 -10.60545 35554 ft 478 kts 291°
2026-04-15 12:04 53.86366 -10.70645 35555 ft 478 kts 291°
2026-04-15 12:05 53.88799 -10.79045 35547 ft 478 kts 291°
2026-04-15 12:05 53.91719 -10.89164 35554 ft 478 kts 291°
2026-04-15 12:06 53.95101 -11.00940 35543 ft 478 kts 291°
2026-04-15 12:06 53.97533 -11.09443 35540 ft 477 kts 291°
2026-04-15 12:07 54.00409 -11.19540 35545 ft 479 kts 291°
2026-04-15 12:07 54.03307 -11.29760 35532 ft 480 kts 291°
2026-04-15 12:08 54.06200 -11.40003 35530 ft 480 kts 291°
2026-04-15 12:08 54.09083 -11.50256 35525 ft 480 kts 291°
2026-04-15 12:09 54.11938 -11.60457 35520 ft 480 kts 290°
2026-04-15 12:09 54.14803 -11.70740 35521 ft 480 kts 290°
2026-04-15 12:10 54.17655 -11.81018 35522 ft 478 kts 291°
2026-04-15 12:10 54.20492 -11.91290 35509 ft 479 kts 290°
2026-04-15 12:11 54.23311 -12.01547 35501 ft 480 kts 290°
2026-04-15 12:11 54.26142 -12.11886 35495 ft 480 kts 290°
2026-04-15 12:12 54.28964 -12.22240 35493 ft 480 kts 290°
2026-04-15 12:12 54.31775 -12.32602 35492 ft 480 kts 290°
2026-04-15 12:13 54.34555 -12.42897 35484 ft 478 kts 290°
2026-04-15 12:13 54.37332 -12.53224 35483 ft 477 kts 290°
2026-04-15 12:14 54.40109 -12.63605 35477 ft 479 kts 290°
2026-04-15 12:14 54.42883 -12.74020 35472 ft 479 kts 290°
2026-04-15 12:15 54.45647 -12.84442 35467 ft 479 kts 290°
2026-04-15 12:15 54.48384 -12.94807 35471 ft 479 kts 290°
2026-04-15 12:16 54.51126 -13.05243 35460 ft 477 kts 290°
2026-04-15 12:16 54.53846 -13.15639 35461 ft 476 kts 290°
2026-04-15 12:17 54.56556 -13.26052 35451 ft 478 kts 290°
2026-04-15 12:17 54.59269 -13.36528 35451 ft 479 kts 290°
2026-04-15 12:18 54.61959 -13.46956 35444 ft 479 kts 290°
2026-04-15 12:18 54.64657 -13.57462 35442 ft 479 kts 290°
2026-04-15 12:19 54.67342 -13.67969 35439 ft 477 kts 290°
2026-04-15 12:19 54.70007 -13.78445 35438 ft 476 kts 290°
2026-04-15 12:20 54.72642 -13.88855 35438 ft 476 kts 289°
2026-04-15 12:20 54.75289 -13.99368 35423 ft 477 kts 289°
2026-04-15 12:21 54.77936 -14.09924 35423 ft 478 kts 289°
2026-04-15 12:21 54.80574 -14.20495 35424 ft 478 kts 289°
2026-04-15 12:22 54.83184 -14.31000 35419 ft 477 kts 289°
2026-04-15 12:22 54.85792 -14.41549 35420 ft 475 kts 289°
2026-04-15 12:23 54.88387 -14.52099 35414 ft 475 kts 289°
2026-04-15 12:23 54.90973 -14.62665 35411 ft 475 kts 289°
2026-04-15 12:24 54.93556 -14.73270 35413 ft 477 kts 289°
2026-04-15 12:24 54.96117 -14.83832 35407 ft 477 kts 289°
2026-04-15 12:25 54.98667 -14.94488 35402 ft 475 kts 286°
2026-04-15 12:25 55.00036 -15.05570 35399 ft 466 kts 271°
2026-04-15 12:26 55.00417 -15.16821 35398 ft 465 kts 269°
2026-04-15 12:26 55.00602 -15.28079 35395 ft 465 kts 268°
2026-04-15 12:27 55.00763 -15.39262 35398 ft 465 kts 268°
2026-04-15 12:27 55.00937 -15.50517 35400 ft 465 kts 268°
2026-04-15 12:28 55.01110 -15.61748 35387 ft 463 kts 269°
2026-04-15 12:28 55.01282 -15.72961 35390 ft 463 kts 268°
2026-04-15 12:29 55.01442 -15.84097 35391 ft 463 kts 268°
2026-04-15 12:29 55.01590 -15.95312 35384 ft 463 kts 268°
2026-04-15 12:30 55.01726 -16.06517 35393 ft 463 kts 268°
2026-04-15 12:30 55.01850 -16.17708 35385 ft 461 kts 268°
2026-04-15 12:31 55.01967 -16.28880 35380 ft 461 kts 268°
2026-04-15 12:31 55.02074 -16.39976 35379 ft 461 kts 268°
2026-04-15 12:32 55.02170 -16.51152 35378 ft 461 kts 268°
2026-04-15 12:32 55.02255 -16.62324 35384 ft 461 kts 268°
2026-04-15 12:33 55.02328 -16.73473 35374 ft 459 kts 268°
2026-04-15 12:33 55.02394 -16.84578 35375 ft 458 kts 268°
2026-04-15 12:34 55.02449 -16.95600 35379 ft 458 kts 268°
2026-04-15 12:34 55.02493 -17.06702 35378 ft 458 kts 268°
2026-04-15 12:35 55.02528 -17.17800 35374 ft 458 kts 268°
2026-04-15 12:35 55.02552 -17.28892 35375 ft 458 kts 268°
2026-04-15 12:36 55.02566 -17.39911 35375 ft 458 kts 268°
2026-04-15 12:36 55.02570 -17.51008 35376 ft 458 kts 268°
2026-04-15 12:37 55.02564 -17.62097 35378 ft 458 kts 268°
2026-04-15 12:37 55.02548 -17.73223 35370 ft 460 kts 268°
2026-04-15 12:38 55.02518 -17.84294 35371 ft 459 kts 268°
2026-04-15 12:38 55.02476 -17.95411 35370 ft 459 kts 268°
2026-04-15 12:39 55.02435 -18.06528 35372 ft 459 kts 268°
2026-04-15 12:39 55.02382 -18.17635 35373 ft 458 kts 268°
2026-04-15 12:40 55.02316 -18.28742 35374 ft 458 kts 268°
2026-04-15 12:40 55.02238 -18.39768 35372 ft 457 kts 268°
2026-04-15 12:41 55.02149 -18.50829 35368 ft 456 kts 268°
2026-04-15 12:41 55.02055 -18.61872 35367 ft 456 kts 268°
2026-04-15 12:42 55.01950 -18.72916 35368 ft 456 kts 268°
2026-04-15 12:42 55.01835 -18.83880 35367 ft 456 kts 267°
2026-04-15 12:43 55.01706 -18.94916 35371 ft 455 kts 268°
2026-04-15 12:43 55.01563 -19.05917 35370 ft 454 kts 268°
2026-04-15 12:44 55.01423 -19.16905 35368 ft 453 kts 268°
2026-04-15 12:44 55.01272 -19.27816 35370 ft 453 kts 267°
2026-04-15 12:45 55.01109 -19.38797 35373 ft 453 kts 267°
2026-04-15 12:45 55.00933 -19.49778 35375 ft 454 kts 268°
2026-04-15 12:46 55.00744 -19.60690 35373 ft 454 kts 268°
2026-04-15 12:46 55.00551 -19.71668 35373 ft 453 kts 267°
2026-04-15 12:47 55.00350 -19.82637 35376 ft 453 kts 267°
2026-04-15 12:47 55.00136 -19.93610 35376 ft 453 kts 267°
2026-04-15 12:48 55.00181 -20.04586 35376 ft 454 kts 271°
2026-04-15 12:48 55.00497 -20.15476 35375 ft 453 kts 272°
2026-04-15 12:49 55.00856 -20.26414 35375 ft 452 kts 272°
2026-04-15 12:49 55.01208 -20.37352 35381 ft 452 kts 272°
2026-04-15 12:50 55.01543 -20.48290 35377 ft 452 kts 272°
2026-04-15 12:50 55.01862 -20.59161 35388 ft 452 kts 272°
2026-04-15 12:51 55.02173 -20.70099 35383 ft 451 kts 272°
2026-04-15 12:51 55.02473 -20.81011 35384 ft 450 kts 272°
2026-04-15 12:52 55.02764 -20.91906 35384 ft 450 kts 272°
2026-04-15 12:52 55.03043 -21.02740 35384 ft 451 kts 272°
2026-04-15 12:53 55.03315 -21.13677 35384 ft 452 kts 272°
2026-04-15 12:53 55.03592 -21.24619 35383 ft 452 kts 272°
2026-04-15 12:54 55.03933 -21.35536 35388 ft 450 kts 273°
2026-04-15 12:54 55.04284 -21.46350 35387 ft 450 kts 273°
2026-04-15 12:55 55.04622 -21.57231 35392 ft 449 kts 272°
2026-04-15 12:55 55.04945 -21.68122 35392 ft 449 kts 272°
2026-04-15 12:56 55.05256 -21.79009 35398 ft 449 kts 272°
2026-04-15 12:56 55.05555 -21.89818 35397 ft 449 kts 272°
2026-04-15 12:57 55.05845 -22.00678 35397 ft 448 kts 272°
2026-04-15 12:57 55.06126 -22.11520 35398 ft 447 kts 272°
2026-04-15 12:58 55.06397 -22.22362 35417 ft 447 kts 272°
2026-04-15 12:58 55.06658 -22.33156 35404 ft 449 kts 272°
2026-04-15 12:59 55.07034 -22.49509 35401 ft 449 kts 272°
2026-04-15 12:59 55.07271 -22.60373 35406 ft 447 kts 272°
2026-04-15 13:00 55.07499 -22.71205 35409 ft 446 kts 272°
2026-04-15 13:00 55.07715 -22.81961 35409 ft 446 kts 272°
2026-04-15 13:01 55.07923 -22.92790 35406 ft 447 kts 272°
2026-04-15 13:01 55.08122 -23.03623 35409 ft 447 kts 272°
2026-04-15 13:02 55.08311 -23.14457 35409 ft 447 kts 272°
2026-04-15 13:02 55.08489 -23.25223 35412 ft 447 kts 272°
2026-04-15 13:03 55.08659 -23.36057 35414 ft 447 kts 272°
2026-04-15 13:03 55.08819 -23.46891 35414 ft 447 kts 272°
2026-04-15 13:04 55.08970 -23.57737 35417 ft 448 kts 271°
2026-04-15 13:04 55.09111 -23.68615 35410 ft 448 kts 272°
2026-04-15 13:05 55.09241 -23.79391 35417 ft 446 kts 272°
2026-04-15 13:05 55.09363 -23.90205 35423 ft 445 kts 271°
2026-04-15 13:06 55.09475 -24.01016 35541 ft 446 kts 271°
2026-04-15 13:06 55.09527 -24.06426 35700 ft 446 kts 271°
2026-04-15 13:06 55.09577 -24.11832 35850 ft 446 kts 271°
2026-04-15 13:07 55.09625 -24.17248 36003 ft 446 kts 271°
2026-04-15 13:07 55.09669 -24.22586 36144 ft 446 kts 271°
2026-04-15 13:07 55.09712 -24.27999 36283 ft 446 kts 271°
2026-04-15 13:07 55.09752 -24.33394 36513 ft 444 kts 271°
2026-04-15 13:08 55.09790 -24.38774 36675 ft 443 kts 271°
2026-04-15 13:08 55.09825 -24.44158 36783 ft 444 kts 271°
2026-04-15 13:08 55.09858 -24.49551 36905 ft 444 kts 271°
2026-04-15 13:08 55.09889 -24.54949 37022 ft 445 kts 271°
2026-04-15 13:09 55.09918 -24.60343 37139 ft 445 kts 271°
2026-04-15 13:09 55.09944 -24.65749 37264 ft 445 kts 271°
2026-04-15 13:09 55.09967 -24.71079 37386 ft 445 kts 271°
2026-04-15 13:09 55.09988 -24.76490 37427 ft 446 kts 271°
2026-04-15 13:10 55.10024 -24.87338 37418 ft 447 kts 271°
2026-04-15 13:10 55.10050 -24.98170 37429 ft 445 kts 271°
2026-04-15 13:11 55.10066 -25.08977 37426 ft 445 kts 270°
2026-04-15 13:11 55.10063 -25.19707 37428 ft 445 kts 270°
2026-04-15 13:12 55.10043 -25.30509 37428 ft 445 kts 270°
2026-04-15 13:12 55.10014 -25.41312 37432 ft 445 kts 270°
2026-04-15 13:13 55.09976 -25.52108 37431 ft 444 kts 270°
2026-04-15 13:13 55.09930 -25.62779 37436 ft 441 kts 270°
2026-04-15 13:14 55.09874 -25.73485 37427 ft 441 kts 270°
2026-04-15 13:14 55.09809 -25.84189 37433 ft 441 kts 270°
2026-04-15 13:15 55.09735 -25.94894 37425 ft 441 kts 270°
2026-04-15 13:15 55.09652 -26.05528 37427 ft 441 kts 270°
2026-04-15 13:16 55.09559 -26.16228 37428 ft 441 kts 269°
2026-04-15 13:16 55.09457 -26.26927 37426 ft 441 kts 269°
2026-04-15 13:17 55.09345 -26.37621 37423 ft 441 kts 269°
2026-04-15 13:17 55.09225 -26.48248 37427 ft 441 kts 269°
2026-04-15 13:18 55.09094 -26.58945 37427 ft 441 kts 269°
2026-04-15 13:18 55.08954 -26.69642 37400 ft 441 kts 269°
2026-04-15 13:19 55.08805 -26.80327 37420 ft 440 kts 269°
2026-04-15 13:19 55.08647 -26.91004 37411 ft 440 kts 269°
2026-04-15 13:20 55.08481 -27.01607 37412 ft 440 kts 269°
2026-04-15 13:20 55.08304 -27.12281 37413 ft 440 kts 269°
2026-04-15 13:21 55.08118 -27.22956 37416 ft 440 kts 269°
2026-04-15 13:21 55.07922 -27.33621 37412 ft 439 kts 268°
2026-04-15 13:22 55.07719 -27.44192 37403 ft 439 kts 268°
2026-04-15 13:22 55.07506 -27.54843 37415 ft 440 kts 268°
2026-04-15 13:23 55.07282 -27.65504 37410 ft 440 kts 268°
2026-04-15 13:23 55.07050 -27.76164 37413 ft 439 kts 268°
2026-04-15 13:24 55.06810 -27.86746 37407 ft 439 kts 268°
2026-04-15 13:24 55.06559 -27.97398 37416 ft 439 kts 268°
2026-04-15 13:25 55.06299 -28.08026 37418 ft 439 kts 268°
2026-04-15 13:25 55.06030 -28.18658 37416 ft 439 kts 268°
2026-04-15 13:26 55.05752 -28.29288 37426 ft 439 kts 268°
2026-04-15 13:26 55.05466 -28.39847 37428 ft 439 kts 268°
2026-04-15 13:27 55.05169 -28.50471 37427 ft 439 kts 267°
2026-04-15 13:27 55.04863 -28.61097 37433 ft 439 kts 267°
2026-04-15 13:28 55.04548 -28.71721 37436 ft 439 kts 267°
2026-04-15 13:28 55.04225 -28.82289 37433 ft 440 kts 267°
2026-04-15 13:29 55.03891 -28.92933 37423 ft 440 kts 267°
2026-04-15 13:29 55.03547 -29.03579 37448 ft 440 kts 267°
2026-04-15 13:30 55.03193 -29.14225 37448 ft 440 kts 267°
2026-04-15 13:30 55.02834 -29.24787 37461 ft 440 kts 267°
2026-04-15 13:31 55.02462 -29.35428 37458 ft 440 kts 266°
2026-04-15 13:31 55.02081 -29.46062 37471 ft 440 kts 266°
2026-04-15 13:32 55.01691 -29.56701 37458 ft 440 kts 266°
2026-04-15 13:32 55.01294 -29.67258 37471 ft 440 kts 266°
2026-04-15 13:33 55.00886 -29.77895 37478 ft 440 kts 266°
2026-04-15 13:33 55.00467 -29.88540 37480 ft 440 kts 266°
2026-04-15 13:34 54.99929 -29.99165 37491 ft 441 kts 260°
2026-04-15 13:34 54.98569 -30.09499 37490 ft 441 kts 256°
2026-04-15 13:35 54.96990 -30.19818 37500 ft 441 kts 256°
2026-04-15 13:35 54.95362 -30.30115 37494 ft 441 kts 255°
2026-04-15 13:36 54.93734 -30.40417 37511 ft 442 kts 255°
2026-04-15 13:36 54.92118 -30.50651 37511 ft 442 kts 255°
2026-04-15 13:37 54.90487 -30.60945 37521 ft 442 kts 255°
2026-04-15 13:37 54.88847 -30.71234 37520 ft 442 kts 255°
2026-04-15 13:38 54.87197 -30.81516 37520 ft 442 kts 255°
2026-04-15 13:38 54.85539 -30.91791 37523 ft 442 kts 255°
2026-04-15 13:39 54.83881 -31.01994 37537 ft 442 kts 255°
2026-04-15 13:39 54.82205 -31.12252 37535 ft 442 kts 255°
2026-04-15 13:40 54.80520 -31.22507 37546 ft 442 kts 255°
2026-04-15 13:40 54.78826 -31.32750 37537 ft 442 kts 255°
2026-04-15 13:41 54.77123 -31.42986 37552 ft 442 kts 255°
2026-04-15 13:41 54.75423 -31.53148 37553 ft 442 kts 255°
2026-04-15 13:42 54.73704 -31.63365 37566 ft 442 kts 255°
2026-04-15 13:42 54.71976 -31.73574 37564 ft 442 kts 254°
2026-04-15 13:43 54.70239 -31.83772 37566 ft 442 kts 254°
2026-04-15 13:43 54.68505 -31.93898 37570 ft 442 kts 254°
2026-04-15 13:44 54.66752 -32.04079 37575 ft 442 kts 254°
2026-04-15 13:44 54.64990 -32.14252 37575 ft 442 kts 254°
2026-04-15 13:45 54.63219 -32.24415 37581 ft 442 kts 254°
2026-04-15 13:47 54.56052 -32.64981 37589 ft 443 kts 254°
2026-04-15 13:47 54.54247 -32.75058 37595 ft 443 kts 253°
2026-04-15 13:48 54.52420 -32.85195 37592 ft 443 kts 253°
2026-04-15 13:48 54.50585 -32.95328 37606 ft 443 kts 253°
2026-04-15 13:49 54.48741 -33.05452 37603 ft 444 kts 253°
2026-04-15 13:49 54.46888 -33.15568 37608 ft 444 kts 253°
2026-04-15 13:50 54.45039 -33.25609 37606 ft 444 kts 253°
2026-04-15 13:50 54.43169 -33.35708 37617 ft 444 kts 253°
2026-04-15 13:51 54.41290 -33.45802 37614 ft 444 kts 253°
2026-04-15 13:51 54.39403 -33.55885 37622 ft 444 kts 253°
2026-04-15 13:52 54.37520 -33.65896 37622 ft 444 kts 253°
2026-04-15 13:52 54.35616 -33.75961 37628 ft 444 kts 253°
2026-04-15 13:53 54.33703 -33.86021 37630 ft 444 kts 253°
2026-04-15 13:53 54.31824 -33.96020 37633 ft 444 kts 253°
2026-04-15 13:54 54.29943 -34.06082 37634 ft 444 kts 253°
2026-04-15 13:54 54.28052 -34.16142 37633 ft 444 kts 253°
2026-04-15 13:55 54.26150 -34.26188 37635 ft 444 kts 253°
2026-04-15 13:55 54.24252 -34.36158 37641 ft 444 kts 253°
2026-04-15 13:56 54.22330 -34.46195 37641 ft 444 kts 253°
2026-04-15 13:56 54.20401 -34.56217 37647 ft 444 kts 253°
2026-04-15 13:57 54.18464 -34.66231 37647 ft 444 kts 253°
2026-04-15 13:57 54.16518 -34.76233 37655 ft 444 kts 252°
2026-04-15 13:58 54.14573 -34.86183 37650 ft 445 kts 252°
2026-04-15 13:58 54.12605 -34.96200 37658 ft 446 kts 252°
2026-04-15 13:59 54.10626 -35.06219 37658 ft 446 kts 252°
2026-04-15 13:59 54.08639 -35.16225 37664 ft 446 kts 252°
2026-04-15 14:00 54.06657 -35.26156 37666 ft 446 kts 252°
2026-04-15 14:00 54.04655 -35.36141 37674 ft 446 kts 252°
2026-04-15 14:01 54.01633 -35.51113 37677 ft 446 kts 252°
2026-04-15 14:02 53.99607 -35.61086 37677 ft 446 kts 252°
2026-04-15 14:02 53.97585 -35.70987 37686 ft 446 kts 252°
2026-04-15 14:03 53.95542 -35.80944 37685 ft 446 kts 252°
2026-04-15 14:03 53.93491 -35.90893 37688 ft 447 kts 251°
2026-04-15 14:04 53.91429 -36.00840 37692 ft 447 kts 251°
2026-04-15 14:04 53.89373 -36.10714 37700 ft 447 kts 251°
2026-04-15 14:05 53.87294 -36.20645 37700 ft 447 kts 251°
2026-04-15 14:05 53.85206 -36.30572 37705 ft 447 kts 251°
2026-04-15 14:06 53.83110 -36.40489 37703 ft 447 kts 251°
2026-04-15 14:06 53.81005 -36.50400 37713 ft 448 kts 251°
2026-04-15 14:07 53.78906 -36.60235 37711 ft 448 kts 251°
2026-04-15 14:07 53.76784 -36.70129 37719 ft 448 kts 251°
2026-04-15 14:08 53.74654 -36.80014 37719 ft 448 kts 251°
2026-04-15 14:08 53.72515 -36.89890 37722 ft 448 kts 251°
2026-04-15 14:09 53.70382 -36.99690 37735 ft 448 kts 251°
2026-04-15 14:09 53.68227 -37.09549 37732 ft 448 kts 250°
2026-04-15 14:10 53.66064 -37.19396 37732 ft 448 kts 250°
2026-04-15 14:10 53.63891 -37.29238 37741 ft 448 kts 250°
2026-04-15 14:11 53.61711 -37.39069 37738 ft 448 kts 250°
2026-04-15 14:11 53.59539 -37.48815 37747 ft 448 kts 250°
2026-04-15 14:12 53.57345 -37.58616 37747 ft 447 kts 250°
2026-04-15 14:12 53.55144 -37.68404 37755 ft 447 kts 250°
2026-04-15 14:13 53.52934 -37.78180 37751 ft 447 kts 250°
2026-04-15 14:13 53.50732 -37.87883 37763 ft 447 kts 250°
2026-04-15 14:14 53.48507 -37.97636 37762 ft 447 kts 250°
2026-04-15 14:14 53.46275 -38.07380 37771 ft 447 kts 250°
2026-04-15 14:15 53.44050 -38.17047 37772 ft 447 kts 250°
2026-04-15 14:15 53.41803 -38.26765 37778 ft 447 kts 250°
2026-04-15 14:16 53.39547 -38.36474 37778 ft 447 kts 250°
2026-04-15 14:16 53.37288 -38.46156 37785 ft 446 kts 250°
2026-04-15 14:17 53.35022 -38.55826 37782 ft 446 kts 250°
2026-04-15 14:17 53.32763 -38.65421 37796 ft 446 kts 250°
2026-04-15 14:18 53.30481 -38.75069 37799 ft 446 kts 250°
2026-04-15 14:18 53.28191 -38.84708 37808 ft 446 kts 250°
2026-04-15 14:19 53.25895 -38.94331 37807 ft 446 kts 250°
2026-04-15 14:19 53.23607 -39.03873 37806 ft 446 kts 250°
2026-04-15 14:20 53.21295 -39.13477 37814 ft 446 kts 250°
2026-04-15 14:20 53.18976 -39.23069 37813 ft 446 kts 250°
2026-04-15 14:21 53.16648 -39.32655 37823 ft 446 kts 250°
2026-04-15 14:21 53.14329 -39.42162 37824 ft 446 kts 249°
2026-04-15 14:22 53.11986 -39.51726 37827 ft 446 kts 250°
2026-04-15 14:22 53.09633 -39.61286 37834 ft 446 kts 250°
2026-04-15 14:23 53.07274 -39.70830 37833 ft 446 kts 249°
2026-04-15 14:23 53.04906 -39.80373 37842 ft 446 kts 249°
2026-04-15 14:24 53.02545 -39.89842 37851 ft 447 kts 249°
2026-04-15 14:24 53.00156 -39.99366 37851 ft 447 kts 249°
2026-04-15 14:25 52.97567 -40.08751 37860 ft 448 kts 247°
2026-04-15 14:25 52.94851 -40.18039 37854 ft 448 kts 246°
2026-04-15 14:26 52.92124 -40.27329 37867 ft 448 kts 246°
2026-04-15 14:26 52.89426 -40.36566 37867 ft 449 kts 246°
2026-04-15 14:27 52.86711 -40.45864 37873 ft 448 kts 246°
2026-04-15 14:27 52.83991 -40.55152 37878 ft 449 kts 246°
2026-04-15 14:28 52.81263 -40.64425 37883 ft 449 kts 246°
2026-04-15 14:28 52.78543 -40.73634 37883 ft 449 kts 246°
2026-04-15 14:29 52.75797 -40.82894 37894 ft 449 kts 246°
2026-04-15 14:29 52.73042 -40.92148 37892 ft 449 kts 246°
2026-04-15 14:30 52.70282 -41.01383 37899 ft 449 kts 246°
2026-04-15 14:30 52.67534 -41.10543 37906 ft 449 kts 246°
2026-04-15 14:31 52.64760 -41.19753 37899 ft 449 kts 246°
2026-04-15 14:31 52.61980 -41.28949 37913 ft 449 kts 246°
2026-04-15 14:32 52.59191 -41.38140 37905 ft 449 kts 246°
2026-04-15 14:32 52.56414 -41.47255 37910 ft 449 kts 246°
2026-04-15 14:33 52.53612 -41.56417 37926 ft 448 kts 246°
2026-04-15 14:33 52.50807 -41.65554 37926 ft 448 kts 246°
2026-04-15 14:34 52.47997 -41.74678 37924 ft 448 kts 246°